[[{"header":{"parameterUnit":"m.s-1","parameterCategory":1,"la1":30.2991,"la2":30.254,"lo1":-89.0895,"lo2":-89.0444,"dy":0.0017,"dx":0.0017,"nx":28,"ny":28,"refTime":"2026-02-01T03:00:00:Z","depth":0,"parameterNumber":2,"parameterNumberName":"U-component_of_WINDS"},"data":[0,0,0,0,0,0,0,0,0,0,0,0,0,0,0,0,0,0,0,0,0,0,0,0,0,0,0,0,0,0,0,0,0,0,0,0,0,0,0,0,0,0,0,0,0,0,0,0,0,0,0,0,0,0,0,0,0,0,4.2134,4.2136,0,4.2321,4.2323,4.2325,4.2263,4.2258,4.2254,4.2251,4.2443,4.2451,4.246,0,0,0,0,0,0,0,0,0,0,0,0,0,4.1722,4.173,4.2134,4.2136,4.2138,4.232,4.2323,4.2326,4.2263,4.2258,4.2253,4.2249,4.244,4.245,4.2461,0,0,0,0,0,0,0,0,0,0,0,0,0,4.1904,4.1732,4.2133,4.2129,4.2131,4.232,4.2323,4.2326,4.2264,4.2258,4.2252,4.2246,4.2436,4.2449,4.2462,4.2667,0,0,4.2503,4.2509,0,0,0,0,0,0,0,0,4.1894,4.1919,4.2127,4.213,4.2132,4.2262,4.2248,4.2441,4.2266,4.2214,4.225,4.2243,4.2388,4.2405,4.2453,4.2676,4.2685,4.2505,4.2513,4.2518,4.2522,0,0,0,0,0,0,0,4.1881,4.1911,4.2208,4.213,4.2133,4.2118,4.2137,4.2285,4.2333,4.2218,4.2214,4.2237,4.2388,4.244,4.2457,4.2687,4.2504,4.2516,4.2524,4.253,4.3086,4.3093,0,0,0,0,0,0,4.1867,4.1901,4.2202,4.2213,4.1995,4.213,4.2152,4.2226,4.2331,4.2341,4.2242,4.2233,4.2421,4.2442,4.2464,4.2709,4.2518,4.2531,4.2538,4.308,4.3088,4.3095,0,0,0,0,0,0,4.1859,4.1895,4.2194,4.2056,4.2093,4.2144,4.2228,4.2233,4.2286,4.2349,4.2357,4.2287,4.2417,4.2445,4.2617,4.2715,4.2537,4.2549,4.3072,4.3082,4.3092,4.3202,0,0,0,0,0,0,4.1847,4.1892,4.1971,4.2058,4.2101,4.2345,4.2234,4.2241,4.2309,4.23,4.2393,4.2403,4.2414,4.2597,4.263,4.273,4.2559,4.3063,4.3076,4.3088,4.319,4.3215,4.3236,0,0,0,0,0,4.1833,4.1995,4.1975,4.2012,4.22,4.235,4.2374,4.2384,4.2317,4.2396,4.2437,4.24,4.2699,4.2615,4.2652,4.2757,4.3057,4.3073,4.3087,4.318,4.321,4.3236,0,0,0,0,0,0,4.1918,4.2006,4.1985,4.218,4.2258,4.2339,4.244,4.2416,4.2514,4.2501,4.2508,4.253,4.2706,4.2749,4.2654,4.296,4.2868,4.2891,4.2926,4.2955,4.2978,4.2963,4.2571,0,0,0,0,0,4.1959,4.2074,4.2145,4.2311,4.2351,4.2389,4.2455,4.2455,4.2536,4.2569,4.2621,4.2701,4.2813,4.2887,4.2993,4.3196,4.3215,4.3287,4.331,4.3328,4.3348,4.3457,4.3489,4.3145,4.3145,4.3145,0,0,4.2046,4.2109,4.2181,4.2329,4.239,4.2508,4.2417,4.2546,4.2634,4.2588,4.2753,4.2795,4.2885,4.3073,4.3158,4.3114,4.3447,4.3348,4.3362,4.3372,4.3476,4.3508,4.3537,4.3156,4.3154,4.3152,0,0,4.2265,4.2324,4.2468,4.253,4.2622,4.2646,4.2681,4.2766,4.2791,4.2957,4.2925,4.3029,4.3222,4.3287,4.3345,4.3587,4.3557,4.3622,4.3742,4.3848,4.3875,4.3899,4.3984,4.4015,4.3642,4.3642,4.3642,0,4.2361,4.2538,4.2545,4.2677,4.2742,4.2706,4.2851,4.2911,4.3034,4.308,4.3028,4.3268,4.3327,4.3528,4.3587,4.3636,4.3675,4.3611,4.3871,4.3895,4.3918,4.3999,4.4031,4.3649,4.3648,4.3647,4.3647,0,4.2652,4.2775,4.288,4.2998,4.3076,4.3214,4.3241,4.3319,4.3312,4.3341,4.351,4.3578,4.3697,4.3745,4.3741,4.3947,4.3916,4.3868,4.3775,4.3957,4.4034,4.4065,4.3659,4.3657,4.3655,4.3653,0,0,4.2929,4.3048,4.3087,4.3139,4.3238,4.3333,4.347,4.3585,4.3651,4.3737,4.3851,4.4014,4.397,4.4036,4.4038,4.4132,4.4317,4.4072,4.4074,4.4114,4.4547,4.4581,4.4617,4.4298,4.4304,4.4309,4.4538,0,4.3155,4.3393,4.3402,4.362,4.3733,4.3699,4.3818,4.3891,4.3922,4.4022,4.4056,4.4172,4.4105,4.4145,4.4236,4.4276,4.4404,4.4259,4.4403,4.4408,4.438,4.4657,4.4694,4.4907,4.4568,4.4574,4.4577,0,4.345,4.3543,4.3772,4.3853,4.3901,4.4007,4.4113,4.421,4.4292,4.4308,4.4381,4.437,4.4508,4.4411,4.4602,4.4503,4.4562,4.4591,4.4599,4.4612,4.4503,4.4676,4.4976,4.5007,4.4625,4.4621,4.4617,0,4.3627,4.3811,4.3971,4.4017,4.4117,4.4192,4.4236,4.4312,4.4381,4.4474,4.4518,4.4626,4.4685,4.4769,4.4787,4.4715,4.4977,4.4882,4.4993,4.4992,4.5049,4.5045,4.5361,4.509,4.5089,4.5088,4.5088,0,4.3877,4.4018,4.4052,4.415,4.4306,4.4316,4.447,4.451,4.4577,4.4682,4.4661,4.4759,4.4777,4.488,4.4895,4.5049,4.5076,4.5092,4.5094,4.5094,4.5091,4.5132,4.5117,4.5097,4.5095,4.5093,4.5092,0,4.4102,4.4131,4.4302,4.4382,4.4405,4.4516,4.4584,4.4678,4.4706,4.4839,4.4871,4.4915,4.5035,4.5061,4.5203,4.5213,4.5396,4.5384,4.5368,4.5366,4.5475,4.5464,4.5828,4.5875,4.5574,4.5577,4.5579,0,4.4259,4.4367,4.4457,4.4525,4.4574,4.4685,4.4754,4.4767,4.484,4.4941,4.5023,4.514,4.5234,4.5427,4.5472,4.558,4.557,4.569,4.5586,4.5581,4.5569,4.5562,4.5572,4.5709,4.5712,4.5715,4.5717,0,4.4535,4.4543,4.4644,4.475,4.4833,4.4918,4.4998,4.5055,4.5079,4.5162,4.5284,4.5357,4.5502,4.5618,4.5726,4.5772,4.5749,4.5749,4.578,4.578,4.5766,4.5773,4.542,4.5741,4.5738,4.5737,4.5735,4.5734,4.473,4.4823,4.4901,4.5013,4.5075,4.515,4.5241,4.528,4.5382,4.55,4.5502,4.5635,4.5712,4.5855,4.5908,4.6011,4.5974,4.6019,4.6031,4.6041,4.605,4.575,4.6031,4.6031,4.603,4.6029,4.6029,0,4.5003,4.5051,4.5155,4.5266,4.5355,4.5325,4.5412,4.5488,4.5604,4.5679,4.5772,4.5911,4.6023,4.6077,4.6187,4.626,4.6252,4.6288,4.6282,4.6293,4.6078,4.6039,4.6293,4.6293,4.6293,4.6293,4.6293,4.6293,4.5155,4.531,4.5328,4.5513,4.556,4.5689,4.5741,4.581,4.5869,4.6025,4.6118,4.6152,4.6218,4.6333,4.6434,4.6447,4.6488,4.653,4.6537,4.6335,4.6308,4.6283,4.6246,4.6539,4.6539,4.6743,4.6745,4.6746]},{"header":{"parameterUnit":"m.s-1","parameterCategory":1,"la1":30.2991,"la2":30.254,"lo1":-89.0895,"lo2":-89.0444,"dy":0.0017,"dx":0.0017,"nx":28,"ny":28,"refTime":"2026-02-01T03:00:00:Z","depth":0,"parameterNumber":3,"parameterNumberName":"V-component_of_WINDS"},"data":[0,0,0,0,0,0,0,0,0,0,0,0,0,0,0,0,0,0,0,0,0,0,0,0,0,0,0,0,0,0,0,0,0,0,0,0,0,0,0,0,0,0,0,0,0,0,0,0,0,0,0,0,0,0,0,0,0,0,-1.4647,-1.4648,0,-1.4754,-1.4755,-1.4756,-1.4786,-1.4785,-1.4784,-1.4784,-1.4895,-1.4898,-1.4902,0,0,0,0,0,0,0,0,0,0,0,0,0,-1.4471,-1.4474,-1.4647,-1.4648,-1.4649,-1.4753,-1.4755,-1.4756,-1.4786,-1.4785,-1.4784,-1.4784,-1.4894,-1.4898,-1.4902,0,0,0,0,0,0,0,0,0,0,0,0,0,-1.4559,-1.4475,-1.4647,-1.4677,-1.468,-1.4753,-1.4755,-1.4757,-1.4786,-1.4785,-1.4784,-1.4783,-1.4892,-1.4897,-1.4903,-1.4954,0,0,-1.4919,-1.4921,0,0,0,0,0,0,0,0,-1.4554,-1.4566,-1.4671,-1.4675,-1.4679,-1.4755,-1.4734,-1.4823,-1.4786,-1.4746,-1.4784,-1.4783,-1.4849,-1.4858,-1.488,-1.4959,-1.4964,-1.4919,-1.4923,-1.4925,-1.4926,0,0,0,0,0,0,0,-1.4548,-1.4561,-1.4689,-1.4672,-1.4677,-1.4686,-1.4697,-1.4751,-1.4802,-1.4749,-1.4752,-1.4764,-1.4851,-1.4875,-1.4883,-1.4965,-1.4919,-1.4924,-1.4927,-1.4929,-1.5093,-1.5094,0,0,0,0,0,0,-1.4537,-1.4556,-1.4686,-1.4692,-1.4613,-1.469,-1.4702,-1.4732,-1.4801,-1.4811,-1.4765,-1.4765,-1.4866,-1.4877,-1.4887,-1.4952,-1.4925,-1.493,-1.4933,-1.5092,-1.5093,-1.5094,0,0,0,0,0,0,-1.4533,-1.4548,-1.4681,-1.4625,-1.4643,-1.4694,-1.4726,-1.4734,-1.4758,-1.4812,-1.4822,-1.4779,-1.4866,-1.488,-1.4937,-1.4956,-1.4932,-1.4937,-1.509,-1.5092,-1.5094,-1.5081,0,0,0,0,0,0,-1.4528,-1.4546,-1.4565,-1.4625,-1.4645,-1.4729,-1.4727,-1.4737,-1.4767,-1.4768,-1.4829,-1.4838,-1.4866,-1.4929,-1.4942,-1.4963,-1.4941,-1.5089,-1.5091,-1.5093,-1.508,-1.5082,-1.5084,0,0,0,0,0,-1.4521,-1.4558,-1.4566,-1.4582,-1.467,-1.473,-1.4741,-1.4773,-1.4768,-1.4788,-1.4824,-1.4836,-1.4952,-1.4935,-1.495,-1.4972,-1.5088,-1.509,-1.5093,-1.5079,-1.5081,-1.5084,0,0,0,0,0,0,-1.4499,-1.4566,-1.4576,-1.4633,-1.4675,-1.4734,-1.4761,-1.4775,-1.482,-1.4819,-1.4857,-1.4871,-1.4926,-1.4955,-1.4935,-1.5026,-1.502,-1.5026,-1.5004,-1.5007,-1.5009,-1.5,-1.4945,0,0,0,0,0,-1.4501,-1.4543,-1.4599,-1.4644,-1.4665,-1.4709,-1.4736,-1.4757,-1.4803,-1.4821,-1.486,-1.4905,-1.4951,-1.4981,-1.5027,-1.5085,-1.5099,-1.5108,-1.511,-1.5111,-1.5115,-1.5149,-1.5153,-1.5103,-1.5103,-1.5103,0,0,-1.4505,-1.4547,-1.4571,-1.4641,-1.4676,-1.4719,-1.4724,-1.4769,-1.4802,-1.4828,-1.4884,-1.4915,-1.4967,-1.5025,-1.5053,-1.5051,-1.5133,-1.5114,-1.5115,-1.5119,-1.5152,-1.5157,-1.5161,-1.5105,-1.5104,-1.5104,0,0,-1.4534,-1.457,-1.4611,-1.4647,-1.47,-1.4729,-1.4739,-1.4797,-1.4818,-1.4875,-1.4896,-1.4936,-1.5015,-1.5052,-1.5081,-1.5126,-1.5139,-1.514,-1.515,-1.5182,-1.5186,-1.5189,-1.5205,-1.5211,-1.5144,-1.5144,-1.5144,0,-1.4532,-1.4597,-1.4631,-1.4675,-1.4706,-1.4731,-1.4774,-1.4807,-1.4873,-1.4894,-1.4891,-1.4992,-1.5029,-1.5096,-1.5107,-1.513,-1.5143,-1.5132,-1.5182,-1.5186,-1.519,-1.5206,-1.5212,-1.5144,-1.5144,-1.5144,-1.5144,0,-1.4593,-1.4638,-1.4665,-1.4727,-1.4761,-1.4805,-1.4845,-1.4876,-1.4894,-1.4924,-1.4983,-1.5029,-1.5085,-1.5102,-1.5121,-1.5173,-1.517,-1.5175,-1.5169,-1.5194,-1.521,-1.5216,-1.5143,-1.5143,-1.5144,-1.5144,0,0,-1.4609,-1.469,-1.47,-1.4729,-1.479,-1.4826,-1.4872,-1.4926,-1.4951,-1.4997,-1.5036,-1.5103,-1.5108,-1.5141,-1.5164,-1.5192,-1.5225,-1.5194,-1.5196,-1.5198,-1.5285,-1.5281,-1.5287,-1.5235,-1.5236,-1.5237,-1.5281,0,-1.4645,-1.4726,-1.4758,-1.4824,-1.4866,-1.4892,-1.4932,-1.4975,-1.5004,-1.5046,-1.5079,-1.5126,-1.5129,-1.5149,-1.5179,-1.5215,-1.5243,-1.5212,-1.5272,-1.5274,-1.5257,-1.5295,-1.529,-1.5329,-1.5287,-1.5288,-1.5289,0,-1.4698,-1.4743,-1.4813,-1.487,-1.4889,-1.4924,-1.4977,-1.5016,-1.5065,-1.5085,-1.5123,-1.5145,-1.5194,-1.5187,-1.5256,-1.5235,-1.5262,-1.5283,-1.5286,-1.5292,-1.5282,-1.5302,-1.5342,-1.5348,-1.5299,-1.5298,-1.5297,0,-1.4702,-1.4781,-1.4833,-1.4857,-1.4925,-1.4949,-1.4979,-1.5028,-1.5059,-1.5105,-1.5126,-1.5178,-1.5207,-1.5247,-1.5283,-1.5274,-1.5349,-1.5345,-1.5367,-1.5366,-1.5381,-1.5379,-1.5425,-1.5399,-1.5399,-1.5399,-1.5399,0,-1.4739,-1.4781,-1.4836,-1.4868,-1.4916,-1.4953,-1.5,-1.5032,-1.5075,-1.5114,-1.5141,-1.5177,-1.5223,-1.5266,-1.5295,-1.5348,-1.5361,-1.5379,-1.5386,-1.5376,-1.5373,-1.5393,-1.5391,-1.5401,-1.54,-1.54,-1.54,0,-1.4751,-1.479,-1.4848,-1.4908,-1.4925,-1.4957,-1.5009,-1.5042,-1.5074,-1.5123,-1.5137,-1.5187,-1.5239,-1.5279,-1.5347,-1.5366,-1.5423,-1.5431,-1.5405,-1.5409,-1.5429,-1.5426,-1.5489,-1.5499,-1.5466,-1.5467,-1.5467,0,-1.4771,-1.4804,-1.4868,-1.4896,-1.4925,-1.497,-1.5001,-1.504,-1.5073,-1.5132,-1.5158,-1.5212,-1.5256,-1.5339,-1.5382,-1.5434,-1.5443,-1.5461,-1.5451,-1.544,-1.5443,-1.544,-1.5444,-1.5462,-1.5462,-1.5462,-1.5463,0,-1.4803,-1.4821,-1.4865,-1.4917,-1.4954,-1.4996,-1.504,-1.5061,-1.5108,-1.5143,-1.5196,-1.5231,-1.5301,-1.5354,-1.5411,-1.5443,-1.5461,-1.5466,-1.5474,-1.5463,-1.5447,-1.5456,-1.5408,-1.5464,-1.5464,-1.5464,-1.5464,-1.5463,-1.482,-1.485,-1.49,-1.4949,-1.4985,-1.5025,-1.5059,-1.5095,-1.514,-1.5199,-1.522,-1.5275,-1.5325,-1.5403,-1.5436,-1.548,-1.5481,-1.5493,-1.5495,-1.5497,-1.5496,-1.5441,-1.5491,-1.5491,-1.5491,-1.5491,-1.5491,0,-1.4853,-1.4886,-1.4931,-1.499,-1.5029,-1.5043,-1.5092,-1.5123,-1.5171,-1.5216,-1.526,-1.5322,-1.5374,-1.5421,-1.5476,-1.5503,-1.5512,-1.5516,-1.5514,-1.5521,-1.5493,-1.548,-1.5507,-1.5507,-1.5507,-1.5507,-1.5507,-1.5507,-1.4874,-1.4926,-1.495,-1.5021,-1.5055,-1.5108,-1.5135,-1.5173,-1.5209,-1.5277,-1.532,-1.5351,-1.5397,-1.5456,-1.5505,-1.5518,-1.5537,-1.5538,-1.5553,-1.5525,-1.5523,-1.5521,-1.5509,-1.5542,-1.5542,-1.5577,-1.5578,-1.5578]}]]